Tracking 29528 objects as of 12-Sep-2024
HD Live streaming from Space Station
objects crossing your sky now

ICEYE-X13

Track ICEYE-X13 now!
10-day predictions


NORAD ID: 48916
Int'l Code: 2021-059AP
Perigee: 477.0 km
Apogee: 483.9 km
Inclination: 97.6 °
Period: 94.1 minutes
Semi major axis: 6851 km
RCS: Unknown
Launch date: June 30, 2021
Source: (FIN)
Launch site: AIR FORCE EASTERN TEST RANGE (AFETR)
Your satellite tracking list
Your tracking list is empty




NASA's NSSDC Master Catalog

Two Line Element Set (TLE):
1 48916U 21059AP  24255.91541286  .00042846  00000-0  14337-2 0  9993
2 48916  97.6461  38.2963 0005020 183.9450 176.1752 15.30830538177898
Source of the keplerian elements: AFSPC